Location: Highland Meadows Observing Site
(48.4428°N, 114.5461°W)
Time: 09:51:40
(UTC-06:00)

Gurwin Techsat 1B - Visible Passes

Search period start: 25 June 2016 00:00
Search period end: 05 July 2016 00:00
Orbit: 812 x 814 km, 98.6° (Epoch: 23 June)

Date Brightness Start Highest point End Pass type
(mag) Time Alt. Az. Time Alt. Az. Time Alt. Az.
25 Jun 9.7 03:16:22 10° NNE 03:21:19 37° E 03:25:55 12° SSE visible
25 Jun 9.5 04:56:25 10° N 05:01:15 36° WNW 05:06:05 10° SW visible
26 Jun 10.3 02:54:01 10° NE 02:58:20 25° E 03:02:38 10° SSE visible
26 Jun 9.0 04:33:25 10° N 04:38:37 54° WNW 04:43:46 10° SW visible
27 Jun 10.8 02:32:03 10° NE 02:35:16 16° E 02:38:29 10° SE visible
27 Jun 8.6 04:10:32 10° NNE 04:15:53 81° WNW 04:20:57 11° SSW visible
28 Jun 8.9 03:47:45 10° NNE 03:53:05 67° ESE 03:57:52 13° S visible
29 Jun 9.5 03:25:07 10° NNE 03:30:13 44° E 03:34:47 13° SSE visible
30 Jun 10.1 03:02:39 10° NE 03:07:16 29° E 03:11:41 11° SSE visible
30 Jun 9.2 04:42:19 10° N 04:47:24 46° WNW 04:52:28 10° SW visible
01 Jul 10.6 02:40:29 10° NE 02:44:14 19° E 02:47:58 10° SE visible
01 Jul 8.7 04:19:23 10° N 04:24:43 69° WNW 04:29:48 11° SSW visible
02 Jul 11.0 02:19:05 10° ENE 02:21:07 12° E 02:23:09 10° ESE visible
02 Jul 8.7 03:56:35 10° NNE 04:01:57 79° ESE 04:06:43 13° S visible
03 Jul 9.2 03:33:53 10° NNE 03:39:06 52° E 03:43:37 14° S visible
04 Jul 9.9 03:11:20 10° NNE 03:16:11 34° E 03:20:32 12° SSE visible
04 Jul 9.4 04:51:16 10° N 04:56:11 39° WNW 05:01:06 10° SW visible
